Tracking 28125 objects as of 3-Oct-2023
HD Live streaming from Space Station
objects crossing your sky now

BRAZILSAT 1

Track BRAZILSAT 1 now!
BRAZILSAT 1 is classified as:


NORAD ID: 15561
Int'l Code: 1985-015B
Perigee: 35,995.4 km
Apogee: 36,001.3 km
Inclination: 14.7 °
Period: 1,446.6 minutes
Semi major axis: 42369 km
RCS: 2.7147 m2 (large)
Launch date: February 8, 1985
Source: Brazil (BRAZ)
Launch site: FRENCH GUIANA (FRGUI)
Your satellite tracking list
Your tracking list is empty




NASA's NSSDC Master Catalog

Two Line Element Set (TLE):
1 15561U 85015B   23274.30813427  .00000065  00000-0  00000-0 0  9994
2 15561  14.6739 352.2898 0000693 191.7809 165.3584  0.99546421 36483
Source of the keplerian elements: AFSPC